Home > Weather > Miami > Past weeks

Flag for USA Past Weather in Miami, Florida, USA — Yesterday and Last 2 Weeks

Now
85 °F

Broken clouds.


Feels Like: 94 °F
Forecast: 78 / 87 °F
Wind: 7 mph from Southeast

Location: Miami International Airport

Current Time: Jul 23, 2016 at 5:13:04 PM

Latest Report: Jul 23, 2016 at 3:53 PM


Visibility: 10 mi

Pressure: 30.01 "Hg

Humidity: 75%

Dew Point: 76 °F

Location of MiamiLocation

Past Weather in Miami — Graph

°F

Miami Temperature Yesterday

Maximum temperature yesterday: 89 °F (at 1:04 PM)
Minimum temperature yesterday: 77 °F (at 3:53 PM)
Average temperature yesterday: 82 °F

High & Low Weather Summary for the Past Weeks

 TemperatureHumidityPressure
High92 °F (Jul 10, 12:53 PM)94% (Jul 23, 6:53 AM)30.19 "Hg (Jul 23, 6:53 AM)
Low76 °F (Jul 16, 12:53 AM)52% (Jul 19, 2:53 PM)29.99 "Hg (Jul 15, 6:53 PM)
Average85 °F72%30.08 "Hg
* Reported Jul 8 2:53 PM — Jul 23 2:53 PM, Miami, Weather by CustomWeather, © 2016

Note: Actual official high and low records may vary slightly from our data, if they occured in-between our weather recording intervals... More about our weather records

Advertising

Miami Weather History for the Previous 24 Hours

Scroll right to see more
 ConditionsComfort  
Time TempWeatherWind HumidityBarometerVisibility
2:53 PM
Sat, Jul 23
82 °FLight rain. Broken clouds.7 mph85%30.02 "Hg9 mi
1:59 PM82 °FThunderstorms. Broken clouds.15 mph72%30.03 "Hg9 mi
12:53 PM87 °FBroken clouds.No wind63%30.04 "Hg10 mi
11:53 AM86 °FBroken clouds.3 mph67%30.05 "Hg10 mi
10:53 AM87 °FBroken clouds.N/A65%30.04 "Hg10 mi
9:53 AM85 °FPartly sunny.3 mph72%30.03 "Hg10 mi
8:53 AM82 °FPartly sunny.No wind79%30.02 "Hg10 mi
7:53 AM79 °FScattered clouds.No wind84%30.03 "Hg10 mi
6:53 AM76 °FPassing clouds.No wind94%30.02 "Hg10 mi
5:53 AM77 °FPassing clouds.No wind90%30.02 "Hg10 mi
4:53 AM77 °FPassing clouds.5 mph90%30.02 "Hg10 mi
3:53 AM77 °FPassing clouds.No wind90%30.01 "Hg10 mi
2:53 AM77 °FPassing clouds.No wind90%30.03 "Hg10 mi
1:53 AM78 °FPassing clouds.3 mph87%30.03 "Hg10 mi
12:53 AM77 °FPassing clouds.No wind90%30.05 "Hg10 mi
11:53 PM
Fri, Jul 22
78 °FPartly cloudy.No wind87%30.06 "Hg10 mi
10:53 PM79 °FPartly cloudy.3 mph84%30.06 "Hg10 mi
9:53 PM80 °FPassing clouds.3 mph81%30.06 "Hg10 mi
8:53 PM80 °FPartly sunny.No wind87%30.03 "Hg10 mi
7:53 PM80 °FBroken clouds.3 mph85%30.03 "Hg10 mi
6:53 PM80 °FBroken clouds.3 mph79%30.04 "Hg10 mi
5:53 PM80 °FBroken clouds.3 mph76%30.05 "Hg10 mi
Weather by CustomWeather, © 2016

See weather overviewHow to use our weather pages